| time (UTC) | temp F | wind direction | speed knots | gust knots | rain 1hr in | rain 24hr in | rain mn in | humidity % | barometer mb |
| 20260507144254 | 56 | 220 | 4.3 | 0.0 | 0.00 | 0.41 | 0.33 | 71 | 1015.2 |
| 20260507143254 | 56 | 350 | 4.3 | 0.0 | 0.00 | 0.41 | 0.33 | 70 | 1015.2 |
| 20260507142254 | 55 | 3 | 5.2 | 0.0 | 0.00 | 0.41 | 0.33 | 72 | 1015.2 |
| 20260507141254 | 55 | 308 | 5.2 | 0.0 | 0.00 | 0.41 | 0.33 | 74 | 1015.2 |
| 20260507140254 | 54 | 275 | 7.0 | 0.0 | 0.00 | 0.41 | 0.33 | 75 | 1015.3 |
| 20260507135254 | 54 | 355 | 6.1 | 0.0 | 0.00 | 0.41 | 0.33 | 75 | 1015.5 |
| 20260507134254 | 54 | 225 | 4.3 | 0.0 | 0.00 | 0.41 | 0.33 | 76 | 1015.4 |
| 20260507133254 | 54 | 20 | 5.2 | 0.0 | 0.00 | 0.41 | 0.33 | 74 | 1015.4 |
| 20260507132254 | 55 | 355 | 3.5 | 0.0 | 0.00 | 0.41 | 0.33 | 73 | 1015.4 |
| 20260507131254 | 55 | 5 | 3.5 | 0.0 | 0.00 | 0.41 | 0.33 | 74 | 1015.3 |
| 20260507130254 | 54 | 50 | 1.7 | 0.0 | 0.00 | 0.41 | 0.33 | 76 | 1015.4 |
| 20260507125254 | 53 | 65 | 5.2 | 0.0 | 0.00 | 0.41 | 0.33 | 77 | 1015.4 |
| 20260507124254 | 53 | 43 | 3.5 | 0.0 | 0.00 | 0.41 | 0.33 | 77 | 1015.4 |
| 20260507123254 | 53 | 138 | 4.3 | 0.0 | 0.00 | 0.41 | 0.33 | 78 | 1015.3 |
| 20260507122255 | 52 | 255 | 5.2 | 0.0 | 0.00 | 0.41 | 0.33 | 78 | 1015.3 |
| 20260507121255 | 53 | 340 | 6.1 | 0.0 | 0.00 | 0.41 | 0.33 | 79 | 1015.3 |
| 20260507120254 | 54 | 348 | 4.3 | 0.0 | 0.00 | 0.41 | 0.33 | 77 | 1015.2 |
| 20260507115255 | 53 | 30 | 4.3 | 0.0 | 0.00 | 0.41 | 0.33 | 76 | 1015.2 |
| 20260507114255 | 54 | 183 | 5.2 | 0.0 | 0.00 | 0.41 | 0.33 | 77 | 1015.2 |
| 20260507113255 | 54 | 208 | 5.2 | 0.0 | 0.00 | 0.41 | 0.33 | 78 | 1015.2 |
| 20260507112255 | 54 | 238 | 6.1 | 0.0 | 0.00 | 0.41 | 0.33 | 80 | 1015.2 |
| 20260507111254 | 53 | 260 | 9.6 | 0.0 | 0.00 | 0.41 | 0.33 | 81 | 1015.1 |
| 20260507110254 | 52 | 93 | 5.2 | 0.0 | 0.00 | 0.41 | 0.33 | 83 | 1015.2 |
| 20260507105255 | 52 | 345 | 6.1 | 0.0 | 0.00 | 0.41 | 0.33 | 84 | 1015.1 |
| 20260507104254 | 51 | 340 | 7.8 | 0.0 | 0.00 | 0.41 | 0.33 | 85 | 1015.1 |
| 20260507103254 | 50 | 40 | 4.3 | 0.0 | 0.00 | 0.41 | 0.33 | 87 | 1015.2 |
| 20260507102254 | 49 | 55 | 3.5 | 0.0 | 0.00 | 0.41 | 0.33 | 87 | 1015.2 |
| 20260507101254 | 49 | 85 | 3.5 | 0.0 | 0.00 | 0.41 | 0.33 | 87 | 1015.2 |
| 20260507100254 | 48 | 75 | 3.5 | 0.0 | 0.00 | 0.41 | 0.33 | 87 | 1015.1 |
| 20260507095254 | 48 | 3 | 6.1 | 0.0 | 0.00 | 0.41 | 0.33 | 88 | 1015.0 |
| 20260507094254 | 48 | 10 | 7.0 | 0.0 | 0.00 | 0.41 | 0.31 | 88 | 1015.0 |
| 20260507093255 | 48 | 28 | 6.1 | 0.0 | 0.00 | 0.41 | 0.31 | 89 | 1014.9 |
| 20260507092254 | 47 | 293 | 4.3 | 0.0 | 0.00 | 0.41 | 0.31 | 89 | 1014.8 |
| 20260507091255 | 47 | 358 | 5.2 | 0.0 | 0.00 | 0.41 | 0.30 | 89 | 1014.6 |
| 20260507090254 | 48 | 23 | 5.2 | 0.0 | 0.00 | 0.41 | 0.27 | 88 | 1014.5 |
| 20260507085254 | 49 | 20 | 0.0 | 0.0 | 0.00 | 0.41 | 0.23 | 89 | 1014.4 |
| 20260507084255 | 49 | 230 | 2.6 | 0.0 | 0.00 | 0.41 | 0.22 | 88 | 1014.4 |
| 20260507083255 | 49 | 3 | 4.3 | 0.0 | 0.00 | 0.41 | 0.22 | 86 | 1014.3 |
| 20260507082254 | 50 | 43 | 1.7 | 0.0 | 0.00 | 0.41 | 0.22 | 87 | 1014.2 |
| 20260507081254 | 49 | 28 | 3.5 | 0.0 | 0.00 | 0.41 | 0.21 | 88 | 1014.1 |
| 20260507080255 | 48 | 215 | 0.0 | 0.0 | 0.00 | 0.41 | 0.21 | 88 | 1014.2 |
| 20260507075254 | 48 | 0 | 3.5 | 0.0 | 0.00 | 0.41 | 0.20 | 87 | 1014.1 |
| 20260507074254 | 49 | 340 | 2.6 | 0.0 | 0.00 | 0.41 | 0.16 | 85 | 1014.0 |
| 20260507073254 | 48 | 153 | 2.6 | 0.0 | 0.00 | 0.41 | 0.16 | 86 | 1013.9 |
| 20260507072255 | 49 | 123 | 0.0 | 0.0 | 0.00 | 0.41 | 0.16 | 86 | 1013.7 |
| 20260507071254 | 48 | 113 | 3.5 | 0.0 | 0.00 | 0.41 | 0.16 | 86 | 1013.7 |
| 20260507070254 | 48 | 113 | 3.5 | 0.0 | 0.00 | 0.41 | 0.16 | 86 | 1013.7 |
| 20260507065254 | 48 | 130 | 2.6 | 0.0 | 0.00 | 0.41 | 0.16 | 87 | 1013.7 |
| 20260507064255 | 48 | 115 | 2.6 | 0.0 | 0.00 | 0.41 | 0.16 | 87 | 1013.6 |
| 20260507063255 | 47 | 18 | 0.0 | 0.0 | 0.00 | 0.41 | 0.16 | 88 | 1013.5 |
| 20260507062254 | 46 | 283 | 3.5 | 0.0 | 0.00 | 0.41 | 0.16 | 90 | 1013.4 |
| 20260507061258 | 46 | 5 | 0.0 | 0.0 | 0.00 | 0.41 | 0.16 | 91 | 1013.4 |
| 20260507060254 | 46 | 5 | 0.0 | 0.0 | 0.00 | 0.41 | 0.16 | 91 | 1013.3 |
| 20260507055254 | 46 | 20 | 0.0 | 0.0 | 0.00 | 0.41 | 0.16 | 92 | 1013.2 |
| 20260507054254 | 46 | 20 | 0.0 | 0.0 | 0.00 | 0.41 | 0.16 | 92 | 1013.1 |
| 20260507053255 | 45 | 20 | 0.0 | 0.0 | 0.00 | 0.41 | 0.16 | 92 | 1013.0 |
| 20260507052254 | 45 | 273 | 0.0 | 0.0 | 0.00 | 0.41 | 0.16 | 92 | 1012.9 |
| 20260507051255 | 45 | 243 | 2.6 | 0.0 | 0.00 | 0.41 | 0.16 | 92 | 1012.8 |
| 20260507050254 | 45 | 260 | 3.5 | 0.0 | 0.00 | 0.41 | 0.16 | 92 | 1012.6 |
| 20260507045255 | 45 | 223 | 3.5 | 0.0 | 0.00 | 0.41 | 0.16 | 92 | 1012.5 |
| 20260507044254 | 45 | 213 | 3.5 | 0.0 | 0.00 | 0.41 | 0.16 | 92 | 1012.4 |
| 20260507043254 | 44 | 343 | 0.0 | 0.0 | 0.00 | 0.41 | 0.16 | 92 | 1012.4 |
| 20260507042255 | 44 | 315 | 3.5 | 0.0 | 0.00 | 0.41 | 0.15 | 92 | 1012.2 |
| 20260507041254 | 44 | 195 | 2.6 | 0.0 | 0.00 | 0.41 | 0.15 | 91 | 1012.1 |
| 20260507040254 | 44 | 198 | 2.6 | 0.0 | 0.00 | 0.41 | 0.15 | 91 | 1011.9 |
| 20260507035254 | 44 | 238 | 3.5 | 0.0 | 0.00 | 0.41 | 0.15 | 91 | 1011.9 |
| 20260507034255 | 44 | 210 | 3.5 | 0.0 | 0.00 | 0.41 | 0.15 | 91 | 1011.8 |
| 20260507033255 | 44 | 190 | 1.7 | 0.0 | 0.00 | 0.41 | 0.14 | 91 | 1011.8 |
| 20260507032255 | 44 | 215 | 4.3 | 0.0 | 0.00 | 0.41 | 0.14 | 91 | 1011.7 |
| 20260507031255 | 44 | 195 | 2.6 | 0.0 | 0.00 | 0.41 | 0.13 | 91 | 1011.6 |
| 20260507030254 | 44 | 233 | 4.3 | 0.0 | 0.00 | 0.41 | 0.12 | 91 | 1011.6 |
| 20260507025254 | 44 | 208 | 0.0 | 0.0 | 0.00 | 0.41 | 0.11 | 91 | 1011.5 |
| 20260507024254 | 44 | 210 | 3.5 | 0.0 | 0.00 | 0.41 | 0.09 | 91 | 1011.5 |
| 20260507023259 | 44 | 175 | 3.5 | 0.0 | 0.00 | 0.41 | 0.08 | 90 | 1011.5 |
| 20260507022255 | 44 | 188 | 3.5 | 0.0 | 0.00 | 0.41 | 0.06 | 90 | 1011.4 |
| 20260507021254 | 44 | 205 | 2.6 | 0.0 | 0.00 | 0.41 | 0.04 | 90 | 1011.3 |
| 20260507020254 | 45 | 200 | 4.3 | 0.0 | 0.00 | 0.41 | 0.02 | 89 | 1011.2 |
| 20260507015254 | 45 | 170 | 3.5 | 0.0 | 0.00 | 0.41 | 0.01 | 89 | 1011.2 |
| 20260507014254 | 45 | 168 | 3.5 | 0.0 | 0.00 | 0.41 | 0.01 | 89 | 1011.1 |
| 20260507013254 | 45 | 178 | 3.5 | 0.0 | 0.00 | 0.41 | 0.01 | 88 | 1011.0 |
| 20260507012254 | 45 | 198 | 4.3 | 0.0 | 0.00 | 0.41 | 0.01 | 89 | 1011.0 |
| 20260507011254 | 45 | 200 | 5.2 | 0.0 | 0.00 | 0.41 | 0.01 | 89 | 1010.8 |
| 20260507010254 | 45 | 178 | 5.2 | 0.0 | 0.00 | 0.41 | 0.01 | 89 | 1010.8 |
| 20260507005254 | 45 | 195 | 3.5 | 0.0 | 0.00 | 0.41 | 0.01 | 88 | 1010.8 |
| 20260507004255 | 45 | 190 | 4.3 | 0.0 | 0.00 | 0.41 | 0.01 | 88 | 1010.8 |
| 20260507003254 | 45 | 193 | 4.3 | 0.0 | 0.00 | 0.41 | 0.00 | 88 | 1010.8 |
| 20260507002254 | 45 | 208 | 4.3 | 0.0 | 0.00 | 0.41 | 0.00 | 88 | 1010.8 |
| 20260507001254 | 45 | 198 | 3.5 | 0.0 | 0.00 | 0.41 | 0.00 | 88 | 1010.9 |
| 20260507000255 | 45 | 233 | 4.3 | 0.0 | 0.00 | 0.41 | 0.00 | 88 | 1010.9 |
| 20260506235254 | 45 | 203 | 7.0 | 0.0 | 0.00 | 0.41 | 0.00 | 88 | 1010.9 |
| 20260506234254 | 45 | 185 | 5.2 | 0.0 | 0.00 | 0.41 | 0.00 | 89 | 1010.9 |
| 20260506233254 | 45 | 155 | 3.5 | 0.0 | 0.00 | 0.41 | 0.00 | 90 | 1011.0 |
| 20260506232254 | 45 | 195 | 4.3 | 0.0 | 0.00 | 0.41 | 0.00 | 90 | 1010.8 |
| 20260506231254 | 45 | 195 | 0.0 | 0.0 | 0.00 | 0.41 | 0.00 | 90 | 1010.8 |
| 20260506230255 | 45 | 218 | 0.0 | 0.0 | 0.00 | 0.41 | 0.00 | 90 | 1010.8 |
| 20260506225255 | 46 | 208 | 1.7 | 0.0 | 0.00 | 0.41 | 0.00 | 90 | 1010.8 |
| 20260506224254 | 46 | 210 | 0.0 | 0.0 | 0.00 | 0.41 | 0.00 | 90 | 1010.7 |
| 20260506223254 | 46 | 203 | 0.0 | 0.0 | 0.00 | 0.41 | 0.00 | 89 | 1010.7 |
| 20260506222255 | 46 | 210 | 5.2 | 0.0 | 0.00 | 0.41 | 0.00 | 89 | 1010.9 |
| 20260506221255 | 46 | 180 | 3.5 | 0.0 | 0.00 | 0.41 | 0.00 | 89 | 1011.0 |
| 20260506220254 | 46 | 193 | 3.5 | 0.0 | 0.00 | 0.41 | 0.00 | 89 | 1011.1 |
| 20260506215255 | 46 | 198 | 4.3 | 0.0 | 0.00 | 0.22 | 0.41 | 89 | 1011.0 |
| 20260506214255 | 46 | 170 | 6.1 | 0.0 | 0.00 | 0.22 | 0.41 | 89 | 1010.9 |
| 20260506213254 | 46 | 200 | 4.3 | 0.0 | 0.00 | 0.22 | 0.41 | 89 | 1010.8 |
| 20260506212255 | 46 | 160 | 3.5 | 0.0 | 0.00 | 0.22 | 0.41 | 90 | 1010.8 |
| 20260506211254 | 46 | 225 | 4.3 | 0.0 | 0.00 | 0.22 | 0.41 | 90 | 1010.6 |
| 20260506210254 | 46 | 193 | 3.5 | 0.0 | 0.00 | 0.22 | 0.41 | 90 | 1010.6 |
| 20260506205255 | 46 | 258 | 3.5 | 0.0 | 0.00 | 0.22 | 0.41 | 90 | 1010.5 |
| 20260506204255 | 46 | 228 | 3.5 | 0.0 | 0.00 | 0.22 | 0.41 | 90 | 1010.5 |
| 20260506203254 | 46 | 215 | 1.7 | 0.0 | 0.00 | 0.22 | 0.41 | 89 | 1010.5 |
| 20260506202254 | 46 | 210 | 2.6 | 0.0 | 0.00 | 0.22 | 0.41 | 89 | 1010.5 |
| 20260506201254 | 46 | 178 | 4.3 | 0.0 | 0.00 | 0.22 | 0.39 | 89 | 1010.5 |
| 20260506200255 | 46 | 190 | 2.6 | 0.0 | 0.00 | 0.22 | 0.38 | 88 | 1010.4 |
| 20260506195254 | 46 | 205 | 5.2 | 0.0 | 0.00 | 0.22 | 0.37 | 88 | 1010.3 |
| 20260506194255 | 46 | 250 | 3.5 | 0.0 | 0.00 | 0.22 | 0.36 | 88 | 1010.2 |
| 20260506193256 | 46 | 208 | 5.2 | 0.0 | 0.00 | 0.22 | 0.35 | 88 | 1010.1 |
| 20260506192255 | 47 | 185 | 4.3 | 0.0 | 0.00 | 0.22 | 0.33 | 89 | 1010.1 |
| 20260506191254 | 47 | 223 | 3.5 | 0.0 | 0.00 | 0.22 | 0.32 | 89 | 1009.9 |
| 20260506190255 | 47 | 203 | 4.3 | 0.0 | 0.00 | 0.22 | 0.28 | 90 | 1009.8 |
| 20260506185255 | 47 | 215 | 3.5 | 0.0 | 0.00 | 0.22 | 0.28 | 90 | 1009.7 |
| 20260506184255 | 47 | 193 | 3.5 | 0.0 | 0.00 | 0.22 | 0.28 | 90 | 1009.6 |
| 20260506183254 | 47 | 183 | 3.5 | 0.0 | 0.00 | 0.22 | 0.27 | 89 | 1009.5 |
| 20260506182254 | 47 | 180 | 3.5 | 0.0 | 0.00 | 0.22 | 0.26 | 89 | 1009.4 |
| 20260506181254 | 48 | 213 | 4.3 | 0.0 | 0.00 | 0.22 | 0.26 | 88 | 1009.3 |
| 20260506180254 | 48 | 225 | 4.3 | 0.0 | 0.00 | 0.22 | 0.24 | 88 | 1009.2 |
| 20260506174916 | 48 | 225 | 6.1 | 0.0 | 0.00 | 0.22 | 0.23 | 88 | 1009.0 |
| 20260506173916 | 48 | 215 | 5.2 | 0.0 | 0.00 | 0.22 | 0.22 | 87 | 1008.8 |
| 20260506172916 | 48 | 205 | 6.1 | 0.0 | 0.00 | 0.22 | 0.22 | 87 | 1008.6 |
| 20260506171916 | 48 | 205 | 4.3 | 0.0 | 0.00 | 0.22 | 0.21 | 87 | 1008.5 |
| 20260506170916 | 48 | 220 | 5.2 | 0.0 | 0.00 | 0.22 | 0.21 | 86 | 1008.5 |
| 20260506165916 | 48 | 220 | 5.2 | 0.0 | 0.00 | 0.22 | 0.21 | 86 | 1008.5 |
| 20260506164916 | 49 | 215 | 6.1 | 0.0 | 0.00 | 0.22 | 0.20 | 86 | 1008.4 |
| 20260506163916 | 49 | 215 | 5.2 | 0.0 | 0.00 | 0.22 | 0.20 | 85 | 1008.4 |
| 20260506162916 | 49 | 210 | 5.2 | 0.0 | 0.00 | 0.22 | 0.19 | 85 | 1008.5 |
| 20260506160916 | 50 | 205 | 3.5 | 0.0 | 0.00 | 0.22 | 0.16 | 86 | 1008.6 |
| 20260506155916 | 50 | 158 | 1.7 | 0.0 | 0.00 | 0.22 | 0.15 | 86 | 1008.5 |
| 20260506154916 | 50 | 240 | 5.2 | 0.0 | 0.00 | 0.22 | 0.14 | 85 | 1008.4 |
| 20260506153916 | 50 | 215 | 5.2 | 0.0 | 0.00 | 0.22 | 0.14 | 85 | 1008.4 |
| 20260506152916 | 51 | 183 | 5.2 | 0.0 | 0.00 | 0.22 | 0.13 | 85 | 1008.3 |
| 20260506151916 | 51 | 125 | 3.5 | 0.0 | 0.00 | 0.22 | 0.13 | 85 | 1008.2 |
| 20260506150916 | 51 | 168 | 4.3 | 0.0 | 0.00 | 0.22 | 0.11 | 84 | 1008.2 |
| 20260506145916 | 51 | 185 | 5.2 | 0.0 | 0.00 | 0.22 | 0.11 | 84 | 1008.1 |
| 20260506144916 | 51 | 238 | 6.1 | 0.0 | 0.00 | 0.22 | 0.10 | 83 | 1008.0 |